[[{"header":{"parameterUnit":"m.s-1","parameterCategory":1,"la1":30.2991,"la2":30.254,"lo1":-89.0895,"lo2":-89.0444,"dy":0.0017,"dx":0.0017,"nx":28,"ny":28,"refTime":"2024-04-20T03:00:00:Z","depth":0,"parameterNumber":2,"parameterNumberName":"U-component_of_WINDS"},"data":[0,0,0,0,0,0,0,0,0,0,0,0,0,0,0,0,0,0,0,0,0,0,0,0,0,0,0,0,0,0,0,0,0,0,0,0,0,0,0,0,0,0,0,0,0,0,0,0,0,0,0,0,0,0,0,0,0,0,-0.5315,-0.5316,0,-0.5391,-0.5392,-0.5393,-0.537,-0.5369,-0.5367,-0.5366,-0.5446,-0.545,-0.5453,0,0,0,0,0,0,0,0,0,0,0,0,0,-0.5151,-0.5154,-0.5315,-0.5316,-0.5317,-0.5391,-0.5392,-0.5393,-0.5371,-0.5369,-0.5367,-0.5365,-0.5445,-0.5449,-0.5454,0,0,0,0,0,0,0,0,0,0,0,0,0,-0.5224,-0.5155,-0.5315,-0.5314,-0.5315,-0.5391,-0.5392,-0.5393,-0.5371,-0.5369,-0.5366,-0.5364,-0.5444,-0.5449,-0.5454,-0.5535,0,0,-0.5471,-0.5473,0,0,0,0,0,0,0,0,-0.522,-0.523,-0.5313,-0.5315,-0.5316,-0.5369,-0.5364,-0.5441,-0.5372,-0.535,-0.5366,-0.5363,-0.5422,-0.5429,-0.5449,-0.5539,-0.5542,-0.5471,-0.5475,-0.5477,-0.5478,0,0,0,0,0,0,0,-0.5215,-0.5227,-0.5345,-0.5315,-0.5316,-0.5311,-0.5319,-0.5378,-0.5399,-0.5352,-0.535,-0.5359,-0.5423,-0.5444,-0.5451,-0.5544,-0.5471,-0.5476,-0.5479,-0.5481,-0.5703,-0.5706,0,0,0,0,0,0,-0.5209,-0.5223,-0.5343,-0.5347,-0.5261,-0.5316,-0.5324,-0.5354,-0.5398,-0.5402,-0.5361,-0.5358,-0.5436,-0.5445,-0.5454,-0.5552,-0.5477,-0.5482,-0.5485,-0.5701,-0.5704,-0.5707,0,0,0,0,0,0,-0.5205,-0.522,-0.5339,-0.5285,-0.5299,-0.5321,-0.5355,-0.5357,-0.5378,-0.5405,-0.5409,-0.5379,-0.5434,-0.5446,-0.5515,-0.5554,-0.5484,-0.5489,-0.5698,-0.5702,-0.5705,-0.5749,0,0,0,0,0,0,-0.5201,-0.5219,-0.525,-0.5285,-0.5302,-0.54,-0.5357,-0.536,-0.5387,-0.5384,-0.5423,-0.5427,-0.5433,-0.5507,-0.552,-0.5561,-0.5493,-0.5694,-0.5699,-0.5704,-0.5744,-0.5754,-0.5762,0,0,0,0,0,-0.5195,-0.5259,-0.5251,-0.5266,-0.5341,-0.5402,-0.5412,-0.5417,-0.5391,-0.5422,-0.5439,-0.5426,-0.5547,-0.5514,-0.5529,-0.5572,-0.5692,-0.5698,-0.5704,-0.574,-0.5752,-0.5762,0,0,0,0,0,0,-0.5229,-0.5264,-0.5256,-0.5333,-0.5365,-0.5398,-0.5438,-0.5429,-0.5469,-0.5464,-0.5469,-0.5478,-0.5549,-0.5566,-0.5529,-0.5652,-0.5616,-0.5625,-0.5638,-0.565,-0.5659,-0.5654,-0.5498,0,0,0,0,0,-0.5245,-0.5291,-0.5319,-0.5385,-0.5401,-0.5416,-0.5443,-0.5444,-0.5477,-0.549,-0.5512,-0.5545,-0.5591,-0.5621,-0.5664,-0.5745,-0.5754,-0.5782,-0.5791,-0.5798,-0.5807,-0.5852,-0.5865,-0.5726,-0.5726,-0.5726,0,0,-0.528,-0.5304,-0.5333,-0.5392,-0.5416,-0.5464,-0.5428,-0.548,-0.5516,-0.5498,-0.5565,-0.5582,-0.5619,-0.5695,-0.5729,-0.5712,-0.5846,-0.5806,-0.5811,-0.5816,-0.5859,-0.5872,-0.5884,-0.573,-0.573,-0.5729,0,0,-0.5368,-0.539,-0.5448,-0.5472,-0.5509,-0.5519,-0.5533,-0.5567,-0.5578,-0.5644,-0.5632,-0.5674,-0.5752,-0.5779,-0.5803,-0.5899,-0.5889,-0.5913,-0.5961,-0.6005,-0.6016,-0.6025,-0.6061,-0.6073,-0.5921,-0.5921,-0.5921,0,-0.5406,-0.5477,-0.5479,-0.5532,-0.5558,-0.5543,-0.5601,-0.5625,-0.5675,-0.5694,-0.5673,-0.577,-0.5794,-0.5876,-0.5899,-0.5918,-0.5935,-0.591,-0.6014,-0.6023,-0.6033,-0.6066,-0.608,-0.5924,-0.5923,-0.5923,-0.5923,0,-0.5524,-0.5573,-0.5615,-0.5662,-0.5693,-0.5748,-0.5758,-0.5789,-0.5787,-0.5799,-0.5867,-0.5894,-0.5943,-0.5961,-0.596,-0.6043,-0.6031,-0.6012,-0.5976,-0.6049,-0.6081,-0.6093,-0.5928,-0.5927,-0.5926,-0.5925,0,0,-0.5638,-0.5683,-0.5699,-0.572,-0.5759,-0.5797,-0.5851,-0.5898,-0.5925,-0.5959,-0.6005,-0.607,-0.6053,-0.608,-0.608,-0.6118,-0.6194,-0.6094,-0.6095,-0.6113,-0.6288,-0.6304,-0.6319,-0.6186,-0.6188,-0.619,-0.6285,0,-0.573,-0.5826,-0.5828,-0.5916,-0.5962,-0.5947,-0.5994,-0.6023,-0.6035,-0.6075,-0.6088,-0.6135,-0.6107,-0.6124,-0.616,-0.6177,-0.6229,-0.6169,-0.623,-0.6232,-0.6224,-0.6335,-0.6353,-0.6442,-0.6298,-0.63,-0.6301,0,-0.5852,-0.5889,-0.5981,-0.6012,-0.6031,-0.6074,-0.6117,-0.6155,-0.6187,-0.6193,-0.6223,-0.6217,-0.6273,-0.6233,-0.631,-0.627,-0.6294,-0.6306,-0.6309,-0.6317,-0.6273,-0.6348,-0.647,-0.6484,-0.6321,-0.6319,-0.6318,0,-0.5928,-0.6,-0.6065,-0.6083,-0.6121,-0.6151,-0.6169,-0.6198,-0.6226,-0.6263,-0.6281,-0.6324,-0.6348,-0.6381,-0.6388,-0.6358,-0.6465,-0.6426,-0.6473,-0.6473,-0.6499,-0.6498,-0.6628,-0.6511,-0.6511,-0.651,-0.651,0,-0.6032,-0.609,-0.61,-0.614,-0.6203,-0.6205,-0.6268,-0.6283,-0.6309,-0.6352,-0.634,-0.6381,-0.6386,-0.6428,-0.6433,-0.6496,-0.6507,-0.6514,-0.6515,-0.6517,-0.6516,-0.6535,-0.6529,-0.6514,-0.6513,-0.6512,-0.6512,0,-0.613,-0.6138,-0.6208,-0.6237,-0.6246,-0.6292,-0.6317,-0.6355,-0.6365,-0.6419,-0.6432,-0.6448,-0.6496,-0.6505,-0.6562,-0.6566,-0.6642,-0.6636,-0.6632,-0.6632,-0.6679,-0.6675,-0.6828,-0.6849,-0.6716,-0.6717,-0.6718,0,-0.6197,-0.6241,-0.6274,-0.6302,-0.632,-0.6365,-0.6392,-0.6394,-0.6424,-0.6463,-0.6497,-0.6544,-0.6582,-0.666,-0.6677,-0.672,-0.6716,-0.6767,-0.6723,-0.6723,-0.6719,-0.6718,-0.6723,-0.6776,-0.6778,-0.6779,-0.678,0,-0.6316,-0.6318,-0.6358,-0.64,-0.6433,-0.6466,-0.6497,-0.652,-0.6526,-0.656,-0.6609,-0.6638,-0.6696,-0.6743,-0.6786,-0.6804,-0.6794,-0.6793,-0.6806,-0.681,-0.6806,-0.681,-0.6657,-0.679,-0.6789,-0.6788,-0.6788,-0.6787,-0.6402,-0.644,-0.647,-0.6515,-0.6538,-0.6567,-0.6604,-0.6618,-0.6659,-0.6706,-0.6704,-0.6758,-0.6788,-0.6845,-0.6865,-0.6907,-0.6891,-0.6911,-0.6916,-0.6921,-0.6927,-0.6797,-0.6915,-0.6915,-0.6914,-0.6914,-0.6914,0,-0.6523,-0.654,-0.6581,-0.6625,-0.666,-0.6645,-0.6678,-0.6709,-0.6756,-0.6785,-0.6822,-0.6878,-0.6923,-0.6942,-0.6987,-0.7017,-0.7013,-0.7029,-0.7028,-0.7033,-0.6938,-0.6922,-0.7031,-0.7031,-0.7031,-0.7031,-0.7031,-0.7031,-0.659,-0.6654,-0.6658,-0.6734,-0.6751,-0.6803,-0.6824,-0.685,-0.6873,-0.6936,-0.6973,-0.6985,-0.701,-0.7055,-0.7096,-0.7101,-0.7118,-0.7137,-0.7139,-0.7051,-0.7039,-0.7028,-0.7014,-0.714,-0.714,-0.7231,-0.7232,-0.7232]},{"header":{"parameterUnit":"m.s-1","parameterCategory":1,"la1":30.2991,"la2":30.254,"lo1":-89.0895,"lo2":-89.0444,"dy":0.0017,"dx":0.0017,"nx":28,"ny":28,"refTime":"2024-04-20T03:00:00:Z","depth":0,"parameterNumber":3,"parameterNumberName":"V-component_of_WINDS"},"data":[0,0,0,0,0,0,0,0,0,0,0,0,0,0,0,0,0,0,0,0,0,0,0,0,0,0,0,0,0,0,0,0,0,0,0,0,0,0,0,0,0,0,0,0,0,0,0,0,0,0,0,0,0,0,0,0,0,0,-6.1417,-6.1418,0,-6.1515,-6.1516,-6.1518,-6.1412,-6.1408,-6.1404,-6.14,-6.1497,-6.1503,-6.1509,0,0,0,0,0,0,0,0,0,0,0,0,0,-6.1132,-6.1138,-6.1416,-6.1418,-6.1419,-6.1515,-6.1517,-6.1518,-6.1413,-6.1408,-6.1403,-6.1398,-6.1495,-6.1502,-6.151,0,0,0,0,0,0,0,0,0,0,0,0,0,-6.1246,-6.114,-6.1416,-6.1378,-6.1376,-6.1515,-6.1517,-6.1518,-6.1414,-6.1408,-6.1402,-6.1396,-6.1492,-6.1501,-6.1511,-6.1691,0,0,-6.154,-6.1544,0,0,0,0,0,0,0,0,-6.1239,-6.1256,-6.1383,-6.1381,-6.1379,-6.1445,-6.1451,-6.1576,-6.1415,-6.1399,-6.14,-6.1393,-6.1484,-6.1494,-6.1526,-6.1695,-6.1699,-6.1541,-6.1546,-6.155,-6.1553,0,0,0,0,0,0,0,-6.1232,-6.1251,-6.1455,-6.1385,-6.1382,-6.1355,-6.1364,-6.1475,-6.1474,-6.14,-6.1393,-6.1406,-6.1482,-6.1517,-6.1527,-6.1701,-6.154,-6.1549,-6.1555,-6.1558,-6.2022,-6.2028,0,0,0,0,0,0,-6.1229,-6.1245,-6.1452,-6.1458,-6.1293,-6.1365,-6.1375,-6.143,-6.1473,-6.1474,-6.1411,-6.1401,-6.1503,-6.1516,-6.153,-6.1744,-6.155,-6.1559,-6.1565,-6.2015,-6.2023,-6.2031,0,0,0,0,0,0,-6.1223,-6.1248,-6.1448,-6.135,-6.1373,-6.1376,-6.1438,-6.1435,-6.147,-6.1481,-6.148,-6.1447,-6.1499,-6.1517,-6.1652,-6.1745,-6.1563,-6.1572,-6.2008,-6.2018,-6.2027,-6.2172,0,0,0,0,0,0,-6.1215,-6.1247,-6.1316,-6.1352,-6.1379,-6.157,-6.1444,-6.1441,-6.1487,-6.1475,-6.1515,-6.1516,-6.1496,-6.1638,-6.1661,-6.1755,-6.158,-6.1999,-6.2012,-6.2024,-6.2159,-6.2186,-6.2209,0,0,0,0,0,-6.1205,-6.1352,-6.132,-6.1346,-6.1466,-6.1576,-6.1591,-6.1567,-6.1495,-6.1564,-6.1572,-6.1514,-6.1731,-6.1653,-6.1678,-6.1776,-6.1993,-6.2008,-6.2023,-6.2148,-6.2181,-6.2208,0,0,0,0,0,0,-6.1325,-6.1356,-6.1321,-6.1484,-6.1529,-6.1558,-6.1645,-6.1602,-6.1666,-6.1651,-6.1617,-6.1627,-6.177,-6.1786,-6.1698,-6.1952,-6.185,-6.1871,-6.1937,-6.1968,-6.1992,-6.1986,-6.1587,0,0,0,0,0,-6.1371,-6.1459,-6.148,-6.1622,-6.1646,-6.1642,-6.1689,-6.1666,-6.171,-6.1728,-6.1744,-6.1788,-6.1865,-6.1917,-6.1989,-6.2161,-6.2167,-6.224,-6.2265,-6.2286,-6.2304,-6.2396,-6.2428,-6.2079,-6.2079,-6.2079,0,0,-6.1466,-6.1493,-6.1551,-6.1647,-6.1679,-6.1769,-6.1658,-6.1759,-6.1825,-6.1742,-6.1871,-6.1885,-6.1931,-6.2085,-6.2154,-6.2103,-6.2402,-6.2305,-6.2321,-6.2328,-6.2414,-6.2447,-6.2477,-6.209,-6.2088,-6.2086,0,0,-6.1685,-6.1715,-6.1837,-6.1871,-6.1921,-6.1917,-6.1946,-6.1983,-6.1989,-6.2119,-6.2058,-6.2136,-6.227,-6.2306,-6.2341,-6.2574,-6.2524,-6.2598,-6.2728,-6.2818,-6.2846,-6.287,-6.2953,-6.2983,-6.2616,-6.2617,-6.2617,0,-6.1796,-6.1932,-6.1904,-6.201,-6.2053,-6.1984,-6.2106,-6.214,-6.221,-6.2241,-6.2184,-6.2352,-6.2378,-6.2539,-6.2596,-6.2627,-6.2659,-6.2594,-6.2844,-6.2868,-6.289,-6.2969,-6.3001,-6.2625,-6.2624,-6.2624,-6.2623,0,-6.2066,-6.2161,-6.2253,-6.2325,-6.2379,-6.2492,-6.248,-6.2538,-6.251,-6.2512,-6.2644,-6.2673,-6.275,-6.2786,-6.276,-6.2944,-6.2911,-6.285,-6.2746,-6.2933,-6.3006,-6.3036,-6.2638,-6.2635,-6.2632,-6.263,0,0,-6.2364,-6.2419,-6.2454,-6.2486,-6.2535,-6.2607,-6.2717,-6.2794,-6.2844,-6.2894,-6.2985,-6.31,-6.3044,-6.3084,-6.3061,-6.314,-6.3323,-6.3068,-6.3069,-6.3115,-6.3527,-6.3574,-6.361,-6.3289,-6.3295,-6.3299,-6.3524,0,-6.2585,-6.2777,-6.2755,-6.2938,-6.3025,-6.296,-6.3055,-6.3095,-6.31,-6.3173,-6.3176,-6.326,-6.3179,-6.3203,-6.3278,-6.3285,-6.3405,-6.3268,-6.3372,-6.3376,-6.3364,-6.3648,-6.3698,-6.3908,-6.3552,-6.3557,-6.3561,0,-6.2868,-6.2931,-6.3123,-6.316,-6.3196,-6.3282,-6.3351,-6.3422,-6.3465,-6.3463,-6.3509,-6.3472,-6.358,-6.3475,-6.3623,-6.353,-6.3571,-6.3581,-6.3588,-6.3598,-6.348,-6.3665,-6.3974,-6.4006,-6.3606,-6.3602,-6.3599,0,-6.3067,-6.3199,-6.3331,-6.336,-6.3406,-6.3469,-6.349,-6.3528,-6.3576,-6.3635,-6.3665,-6.3736,-6.3775,-6.383,-6.3812,-6.3737,-6.3964,-6.3857,-6.3964,-6.3965,-6.4016,-6.4013,-6.4336,-6.4042,-6.4041,-6.404,-6.404,0,-6.3316,-6.3436,-6.3421,-6.3503,-6.3635,-6.3608,-6.3739,-6.3752,-6.3787,-6.3868,-6.3815,-6.3893,-6.3865,-6.394,-6.3926,-6.4051,-6.4069,-6.4069,-6.4064,-6.4075,-6.4075,-6.4101,-6.4087,-6.4049,-6.4047,-6.4045,-6.4044,0,-6.3561,-6.3556,-6.3696,-6.3728,-6.3739,-6.3835,-6.3862,-6.3938,-6.3938,-6.4042,-6.4065,-6.4065,-6.4151,-6.4139,-6.4234,-6.4225,-6.4381,-6.4357,-6.4367,-6.4362,-6.447,-6.446,-6.4823,-6.4869,-6.4544,-6.4547,-6.4549,0,-6.3721,-6.3812,-6.3855,-6.3907,-6.3934,-6.4018,-6.4066,-6.4043,-6.4095,-6.4152,-6.4221,-6.4302,-6.4367,-6.4507,-6.4514,-6.4586,-6.4565,-6.4687,-6.4575,-6.4583,-6.4567,-6.4563,-6.4571,-6.4709,-6.4713,-6.4716,-6.4718,0,-6.4005,-6.3998,-6.4072,-6.4145,-6.4205,-6.4261,-6.4311,-6.4356,-6.4337,-6.4399,-6.4487,-6.4537,-6.4635,-6.4716,-6.4784,-6.4804,-6.4759,-6.4753,-6.4782,-6.4794,-6.4796,-6.4797,-6.4428,-6.4745,-6.4742,-6.474,-6.4739,-6.4738,-6.4212,-6.4291,-6.4334,-6.4417,-6.4453,-6.4501,-6.4574,-6.4585,-6.4658,-6.4738,-6.4718,-6.4818,-6.4858,-6.4945,-6.4973,-6.5049,-6.5004,-6.5046,-6.5057,-6.5067,-6.5081,-6.4783,-6.5061,-6.5061,-6.506,-6.5059,-6.5059,0,-6.4494,-6.4519,-6.4596,-6.4669,-6.4735,-6.4687,-6.4741,-6.4798,-6.4888,-6.493,-6.4994,-6.5096,-6.5174,-6.5188,-6.5263,-6.5322,-6.5302,-6.5342,-6.5338,-6.5343,-6.5116,-6.5084,-6.5356,-6.5356,-6.5356,-6.5356,-6.5356,-6.5356,-6.4649,-6.4779,-6.4778,-6.4925,-6.4947,-6.5046,-6.5081,-6.5125,-6.5159,-6.5275,-6.5341,-6.535,-6.5381,-6.5457,-6.5527,-6.5528,-6.5558,-6.5607,-6.5601,-6.5389,-6.5359,-6.5331,-6.53,-6.5613,-6.5614,-6.5821,-6.5823,-6.5824]}]]